Find Starlink 33935

NORAD ID: 63791 Int'l Des: 2025-091 Owner: SPXS Country: US Constellation: starlink operational
LEOCIRCULAR

实时位置

正在加载3D地球...

关于 Starlink 33935

正在加载描述...

即将过境

Passes for default location (London). Set your location on the main map for personalized predictions.

高度历史

Loading altitude history...

两行轨道根数

1 63791U 25091S 26126.26367791 .00026230 00000-0 95881-3 0 9998
2 63791 43.0018 87.7069 0001084 264.2478 95.8251 15.27597724 57817
Epoch: May 6, 2026 • Age: 12 hours

当前状态

高度 488.4 km
速度 7.62 km/s
星下点 -24.52°S, 155.49°E
发射日期 May 2, 2025
运行时间 1 years
类型 internet

技术详情

分类 Payload
质量 575.00 kg
干质量 530.00 kg
总质量 575.00 kg
长度 0.30 m
直径 4.10 m
跨度 29.00 m
形状 Box + pan
制造商 SPXS
平台类型 Starlink V2MO
阶段状态 In Orbit
所有者/国家 SPXS/US

Most Searched